This demonstration page uses our WeatherBlox Daily Observations layout. Learn more.

Left ArrowRight Arrow

40.92501, -98.34201

Hourly Observations for June 23, 2020

Temp ( °F °C ) Dew Point ( °F °C ) Humidity (%) Winds ( mph kmh ) Pressure ( in mb ) Visibility ( mi km ) Precip ( " mm )
12:53 am 00:53 Clear 63 17.2 58 14.4 84 84 NNW 7 11 30.02 1017 10 16 0.00 0.00
1:24 am 01:24 Clear with Mist and Fog 61 16.1 57 13.9 87 87 NW 5 7 30.02 1016 2 3 0.00 0.00
1:35 am 01:35 Clear with Mist and Fog 60 15.6 56 13.3 86 86 WNW 6 9 30.02 1017 3 5 0.00 0.00
1:53 am 01:53 Clear 60 15.6 56 13.3 86 86 NW 6 9 30.03 1017 9 14 0.00 0.00
2:53 am 02:53 Clear with Mist and Fog 58 14.4 55 12.8 90 90 W 5 7 30.04 1017 6 10 0.00 0.00
3:53 am 03:53 Clear with Mist and Fog 58 14.4 55 12.8 90 90 WSW 3 6 30.04 1017 5 8 0.00 0.00
4:53 am 04:53 Cloudy 60 15.6 57 13.9 90 90 W 6 9 30.05 1018 7 11 0.00 0.00
5:53 am 05:53 Cloudy with Mist and Fog 60 15.6 56 13.3 86 86 W 7 11 30.05 1018 6 10 0.00 0.00
6:53 am 06:53 Partly Cloudy with Mist and Fog 60 15.6 56 13.3 86 86 WNW 7 11 30.06 1018 5 8 0.00 0.00
6:56 am 06:56 Mostly Sunny 60 15.6 56 13.3 86 86 W 7 11 30.04 1017 10 16 0.00 0.00
7:53 am 07:53 Sunny 64 17.8 58 14.4 81 81 W 9 15 30.06 1018 10 16 0.00 0.00
8:53 am 08:53 Mostly Cloudy 68 20 60 15.6 76 76 W 10 17 30.06 1018 10 16 0.00 0.00
9:53 am 09:53 Mostly Cloudy 72 22.2 60 15.6 66 66 WSW 9 15 30.05 1018 10 16 0.00 0.00
10:53 am 10:53 Mostly Sunny 76 24.4 59 15 56 56 WNW 14 22 30.03 1017 10 16 0.00 0.00
11:53 am 11:53 Mostly Cloudy 77 25 56 13.3 48 48 NNW 10 17 30.02 1017 10 16 0.00 0.00
12:53 pm 12:53 Mostly Cloudy 79 26.1 55 12.8 44 44 NNW 12 19 30.01 1016 10 16 0.00 0.00
1:38 pm 13:38 Mostly Cloudy 81 27.2 54 12.2 39 39 NNW 14 22 29.92 1013 10 16 0.00 0.00
1:53 pm 13:53 Mostly Cloudy 83 28.3 54 12.2 37 37 NNW 12 19 30.00 1016 10 16 0.00 0.00
2:53 pm 14:53 Mostly Cloudy 82 27.8 53 11.7 37 37 N 12 19 30.00 1016 10 16 0.00 0.00
4:53 pm 16:53 Sunny 83 28.3 49 9.4 31 31 NNW 14 22 29.97 1015 10 16 0.00 0.00
5:53 pm 17:53 Sunny 82 27.8 49 9.4 32 32 N 13 20 29.96 1014 10 16 0.00 0.00
6:53 pm 18:53 Sunny 79 26.1 49 9.4 35 35 NNE 12 19 29.96 1014 10 16 0.00 0.00
7:53 pm 19:53 Sunny 77 25 50 10 39 39 NNE 9 15 29.96 1014 10 16 0.00 0.00
8:53 pm 20:53 Sunny 71 21.7 52 11.1 51 51 NNE 7 11 29.96 1015 10 16 0.00 0.00
9:53 pm 21:53 Clear 66 18.9 54 12.2 65 65 NE 5 7 29.98 1015 10 16 0.00 0.00
10:53 pm 22:53 Clear 63 17.2 52 11.1 68 68 ENE 3 6 30.00 1016 10 16 0.00 0.00
11:53 pm 23:53 Clear 62 16.7 52 11.1 70 70 Calm 30.01 1016 10 16 0.00 0.00

Powered by AerisWeather